[Date Prev][Date Next][Thread Prev][Thread Next] - [Date Index][Thread Index][Author Index]

2 Line ISS Keps 8-9



ISS
1 25544U 98067A   04222.36865192  .00012366  00000-0  10254-3 0  4088
2 25544  51.6327  54.3052 0005900  96.6746 332.8086 15.70653236326679
----
Via the sarex mailing list at AMSAT.ORG courtesy of AMSAT-NA.
To unsubscribe, send "unsubscribe sarex" to Majordomo@amsat.org



AMSAT Top AMSAT Home